Minot AFB, ND

7:36 PM CDT on June 28, 2017 (GMT -0500)
Minot Air Force Base

Weather History for KMIB - April, 2013

Change the Weather History Date:

Saturday, April 6, 2013

  Actual Average Record
Temperature  
Mean Temperature 26 °F -  
Max Temperature 32 °F 43 °F 69 °F (2004)
Min Temperature 21 °F 24 °F 5 °F (2007)
Degree Days  
Heating Degree Days 38    
Moisture  
Dew Point 28 °F    
Average Humidity 96    
Maximum Humidity 100    
Minimum Humidity 84    
Precipitation  
Precipitation 0.00 in - - ()
Sea Level Pressure  
Sea Level Pressure 29.81 in    
Wind  
Wind Speed 8 mph (North)    
Max Wind Speed 15 mph    
Max Gust Speed -    
Visibility 4 miles    
Events Fog    
Averages and records for this station are not official NWS values.
T = Trace of Precipitation, MM = Missing Value Source: NWS Daily Summary

Daily Weather History Graph

Daily Weather History Graph

Search for Another Location

Airport or City:

Trip Planner

Search our weather history database for the weather conditions in past years. The results will help you decide how hot, cold, wet, or windy it might be!

Date:

Astronomy

Apr. 06, 2013 Rise Set
Actual Time 7:12 AM CDT 8:23 PM CDT
Civil Twilight 6:40 AM CDT 8:55 PM CDT
Nautical Twilight 6:01 AM CDT 9:34 PM CDT
Astronomical Twilight 5:20 AM CDT 10:16 PM CDT
Moon 5:14 AM CDT (4/6) 4:39 PM CDT (4/6)
Length of Visible Light 14h 15m
Length of Day
13h 11m
Waning Crescent, 15% of the Moon is Illuminated
Apr 6
Waning Crescent
Apr 10
New
Apr 18
First Quarter
Apr 25
Full
May 2
Last Quarter

Hourly Weather History & Observations

Time (CDT) Temp. Windchill Dew Point Humidity Pressure Visibility Wind Dir Wind Speed Gust Speed Precip Events Conditions
12:55 AM 28.0 °F 18.6 °F 26.8 °F 95% 29.75 in 10.0 mi SE 10.4 mph - N/A   Clear
1:55 AM 27.3 °F 18.4 °F 26.4 °F 96% 29.74 in 10.0 mi SE 9.2 mph - N/A   Clear
2:36 AM 26.6 °F 19.1 °F 26.6 °F 100% 29.74 in 9.0 mi SE 6.9 mph - N/A   Clear
2:55 AM 26.2 °F 17.8 °F 25.5 °F 97% 29.73 in 8.0 mi SE 8.1 mph - N/A   Clear
4:51 AM 23.0 °F 17.0 °F 23.0 °F 100% 29.72 in 4.0 mi SE 4.6 mph - N/A   Clear
4:52 AM 23.0 °F 17.0 °F 23.0 °F 100% 29.72 in 4.0 mi SE 4.6 mph - N/A   Partly Cloudy
4:55 AM 24.1 °F 18.2 °F 23.5 °F 98% 29.72 in 3.0 mi SE 4.6 mph - N/A   Partly Cloudy
4:57 AM 24.8 °F 19.1 °F 23.0 °F 93% 29.72 in 2.5 mi SE 4.6 mph - N/A   Scattered Clouds
4:58 AM 24.8 °F 19.1 °F 23.0 °F 93% 29.72 in 1.8 mi SE 4.6 mph - N/A   Scattered Clouds
5:00 AM 23.0 °F 17.0 °F 23.0 °F 100% 29.72 in 1.0 mi SE 4.6 mph - N/A   Mist
5:02 AM 23.0 °F 15.8 °F 23.0 °F 100% 29.71 in 0.8 mi SE 5.8 mph - N/A   Mist
5:04 AM 23.0 °F 15.8 °F 23.0 °F 100% 29.71 in 0.5 mi SE 5.8 mph - N/A Fog Light Freezing Fog
5:06 AM 23.0 °F 15.8 °F 21.2 °F 93% 29.71 in 0.5 mi SE 5.8 mph - N/A Fog Light Freezing Fog
5:14 AM 23.0 °F 17.0 °F 21.2 °F 93% 29.71 in 0.2 mi SSE 4.6 mph - N/A Fog Light Freezing Fog
5:16 AM 23.0 °F 17.0 °F 23.0 °F 100% 29.71 in 0.2 mi SSE 4.6 mph - N/A Fog Light Freezing Fog
5:17 AM 23.0 °F 17.0 °F 23.0 °F 100% 29.71 in 0.2 mi SSE 4.6 mph - N/A Fog Light Freezing Fog
5:18 AM 23.0 °F 17.0 °F 23.0 °F 100% 29.71 in 0.2 mi SSE 4.6 mph - N/A Fog Light Freezing Fog
5:32 AM 23.0 °F - 23.0 °F 100% 29.72 in 0.2 mi Calm Calm - N/A Fog Light Freezing Fog
5:39 AM 23.0 °F 18.4 °F 23.0 °F 100% 29.72 in 0.5 mi South 3.5 mph - N/A Fog Light Freezing Fog
5:43 AM 23.0 °F 18.4 °F 21.2 °F 93% 29.72 in 0.2 mi South 3.5 mph - N/A Fog Light Freezing Fog
5:48 AM 21.2 °F 16.4 °F 21.2 °F 100% 29.72 in 0.2 mi SSW 3.5 mph - N/A Fog Light Freezing Fog
5:55 AM 21.9 °F 17.2 °F 20.8 °F 96% 29.73 in 0.2 mi SSW 3.5 mph - N/A Fog Light Freezing Fog
6:05 AM 23.0 °F 18.4 °F 21.2 °F 93% 29.73 in 0.2 mi SSW 3.5 mph - N/A Fog Light Freezing Fog
6:55 AM 25.9 °F - 25.3 °F 98% 29.73 in 0.2 mi Calm Calm - N/A Fog Light Freezing Fog
7:02 AM 26.6 °F 22.6 °F 24.8 °F 93% 29.73 in 0.2 mi North 3.5 mph - N/A Fog Light Freezing Drizzle
7:53 AM 26.6 °F 21.2 °F 26.6 °F 100% 29.75 in 0.2 mi NW 4.6 mph - N/A Fog Light Freezing Fog
7:55 AM 27.1 °F 21.8 °F 26.6 °F 98% 29.75 in 0.2 mi NNW 4.6 mph - 0.00 in Fog Light Freezing Fog
8:16 AM 28.4 °F 23.3 °F 26.6 °F 93% 29.76 in 0.2 mi NNW 4.6 mph - N/A Fog Light Freezing Drizzle
8:43 AM 28.4 °F 21.2 °F 28.4 °F 100% 29.77 in 0.2 mi NNW 6.9 mph - N/A Fog Light Freezing Drizzle
8:48 AM 28.4 °F 20.4 °F 28.4 °F 100% 29.77 in 0.2 mi NNW 8.1 mph - N/A Fog Light Freezing Drizzle
8:55 AM 29.3 °F 22.3 °F 29.1 °F 99% 29.78 in 0.2 mi NW 6.9 mph - 0.00 in Fog Light Freezing Drizzle
8:59 AM 30.2 °F 22.6 °F 28.4 °F 93% 29.78 in 0.2 mi NW 8.1 mph - N/A Fog Light Freezing Drizzle
9:01 AM 30.2 °F 22.6 °F 28.4 °F 93% 29.78 in 0.2 mi NW 8.1 mph - N/A Fog Light Freezing Drizzle
9:13 AM 30.2 °F 22.6 °F 30.2 °F 100% 29.78 in 0.5 mi NNW 8.1 mph - N/A Fog Light Freezing Drizzle
9:17 AM 30.2 °F 22.6 °F 30.2 °F 100% 29.78 in 0.5 mi North 8.1 mph - N/A Fog Light Freezing Drizzle
9:25 AM 30.2 °F 21.3 °F 30.2 °F 100% 29.78 in 0.8 mi North 10.4 mph - N/A   Light Freezing Drizzle
9:31 AM 30.2 °F 20.8 °F 30.2 °F 100% 29.78 in 0.5 mi North 11.5 mph - N/A Fog Light Freezing Drizzle
9:55 AM 30.4 °F 21.5 °F 30.0 °F 99% 29.78 in 0.5 mi NNE 10.4 mph - 0.00 in Fog Light Freezing Drizzle
9:56 AM 30.2 °F 21.3 °F 30.2 °F 100% 29.78 in 0.5 mi NNE 10.4 mph - N/A Fog Light Freezing Drizzle
9:57 AM 30.2 °F 21.9 °F 30.2 °F 100% 29.78 in 0.2 mi NNE 9.2 mph - N/A Fog Light Freezing Drizzle
10:22 AM 30.2 °F 21.3 °F 30.2 °F 100% 29.80 in 0.2 mi NNE 10.4 mph - N/A Fog Light Freezing Drizzle
10:23 AM 30.2 °F 21.3 °F 30.2 °F 100% 29.79 in 0.2 mi NNE 10.4 mph - N/A Fog Light Freezing Drizzle
10:25 AM 30.2 °F 21.3 °F 30.2 °F 100% 29.79 in 0.5 mi NNE 10.4 mph - N/A Fog Light Freezing Drizzle
10:26 AM 30.2 °F 21.3 °F 30.2 °F 100% 29.79 in 0.5 mi NNE 10.4 mph - N/A Fog Light Freezing Drizzle
10:27 AM 30.2 °F 21.3 °F 30.2 °F 100% 29.79 in 0.5 mi NNE 10.4 mph - N/A Fog Light Freezing Drizzle
10:28 AM 30.2 °F 20.8 °F 30.2 °F 100% 29.79 in 0.5 mi North 11.5 mph - N/A Fog Light Freezing Drizzle
10:30 AM 30.2 °F 20.8 °F 30.2 °F 100% 29.79 in 0.8 mi NNE 11.5 mph - N/A   Light Freezing Drizzle
10:32 AM 30.2 °F 21.3 °F 30.2 °F 100% 29.79 in 1.0 mi NNE 10.4 mph - N/A   Light Freezing Drizzle
10:33 AM 30.2 °F 21.3 °F 30.2 °F 100% 29.79 in 1.2 mi NNE 10.4 mph - N/A   Light Freezing Drizzle
10:35 AM 30.2 °F 21.3 °F 30.2 °F 100% 29.79 in 1.5 mi NNE 10.4 mph - N/A   Light Freezing Drizzle
10:37 AM 30.2 °F 21.9 °F 30.2 °F 100% 29.79 in 2.0 mi NNE 9.2 mph - N/A   Light Freezing Drizzle
10:49 AM 30.2 °F 21.3 °F 30.2 °F 100% 29.80 in 3.0 mi North 10.4 mph - N/A   Light Freezing Drizzle
10:54 AM 30.2 °F 20.8 °F 30.2 °F 100% 29.80 in 4.0 mi North 11.5 mph - N/A   Overcast
10:55 AM 30.7 °F 22.0 °F 30.6 °F 99% 29.81 in 4.0 mi North 10.4 mph - 0.00 in   Overcast
11:26 AM 30.2 °F 19.8 °F 30.2 °F 100% 29.81 in 2.0 mi North 13.8 mph - N/A   Overcast
11:27 AM 30.2 °F 19.3 °F 30.2 °F 100% 29.82 in 1.8 mi North 15.0 mph - N/A   Overcast
11:28 AM 30.2 °F 19.3 °F 30.2 °F 100% 29.82 in 1.2 mi North 15.0 mph - N/A   Overcast
11:29 AM 30.2 °F 19.8 °F 30.2 °F 100% 29.82 in 1.0 mi North 13.8 mph - N/A   Overcast
11:31 AM 30.2 °F 19.8 °F 30.2 °F 100% 29.82 in 0.8 mi North 13.8 mph - N/A   Overcast
11:33 AM 30.2 °F 20.2 °F 30.2 °F 100% 29.82 in 0.5 mi North 12.7 mph - N/A Fog Light Freezing Fog
11:35 AM 30.2 °F 20.2 °F 30.2 °F 100% 29.82 in 0.5 mi North 12.7 mph - N/A Fog Light Freezing Fog
11:38 AM 30.2 °F 19.8 °F 30.2 °F 100% 29.83 in 0.2 mi North 13.8 mph - N/A Fog Light Freezing Fog
11:39 AM 30.2 °F 19.8 °F 30.2 °F 100% 29.83 in 0.2 mi North 13.8 mph - N/A Fog Light Freezing Fog
11:40 AM 30.2 °F 20.2 °F 30.2 °F 100% 29.83 in 0.2 mi North 12.7 mph - N/A Fog Light Freezing Fog
11:55 AM 30.7 °F 20.9 °F 30.4 °F 99% 29.83 in 0.2 mi North 12.7 mph - N/A Fog Light Freezing Fog
11:58 AM 30.2 °F 20.2 °F 30.2 °F 100% 29.83 in 0.2 mi North 12.7 mph - N/A Fog Light Freezing Drizzle
12:14 PM 30.2 °F 20.8 °F 30.2 °F 100% 29.83 in 0.5 mi North 11.5 mph - N/A Fog Light Freezing Drizzle
12:17 PM 30.2 °F 20.8 °F 30.2 °F 100% 29.84 in 0.2 mi North 11.5 mph - N/A Fog Light Freezing Drizzle
12:21 PM 30.2 °F 20.8 °F 30.2 °F 100% 29.84 in 0.2 mi North 11.5 mph - N/A Fog Light Freezing Fog
12:25 PM 30.2 °F 20.2 °F 30.2 °F 100% 29.84 in 0.5 mi North 12.7 mph - N/A Fog Light Freezing Fog
12:26 PM 30.2 °F 20.2 °F 30.2 °F 100% 29.84 in 0.5 mi North 12.7 mph - N/A Fog Light Freezing Fog
12:28 PM 30.2 °F 20.2 °F 30.2 °F 100% 29.84 in 0.5 mi North 12.7 mph - N/A Fog Light Freezing Fog
12:30 PM 30.2 °F 20.8 °F 30.2 °F 100% 29.84 in 0.5 mi North 11.5 mph - N/A Fog Light Freezing Fog
12:34 PM 30.2 °F 20.8 °F 30.2 °F 100% 29.84 in 0.8 mi North 11.5 mph - N/A   Mist
12:35 PM 30.2 °F 20.8 °F 30.2 °F 100% 29.84 in 0.8 mi North 11.5 mph - N/A   Mist
12:37 PM 30.2 °F 20.8 °F 30.2 °F 100% 29.84 in 1.0 mi North 11.5 mph - N/A   Overcast
12:38 PM 30.2 °F 20.2 °F 30.2 °F 100% 29.84 in 1.2 mi NNW 12.7 mph - N/A   Overcast
12:39 PM 30.2 °F 20.2 °F 30.2 °F 100% 29.83 in 1.5 mi NNW 12.7 mph - N/A   Overcast
12:41 PM 30.2 °F 20.8 °F 30.2 °F 100% 29.84 in 2.0 mi North 11.5 mph - N/A   Overcast
12:43 PM 30.2 °F 20.8 °F 30.2 °F 100% 29.84 in 3.0 mi North 11.5 mph - N/A   Overcast
12:55 PM 31.3 °F 22.7 °F 31.1 °F 99% 29.84 in 4.0 mi NNW 10.4 mph - 0.00 in   Overcast
1:21 PM 32.0 °F 22.5 °F 32.0 °F 100% 29.84 in 9.0 mi NNW 12.7 mph - N/A   Overcast
1:32 PM 32.0 °F 23.0 °F 30.2 °F 93% 29.84 in 10.0 mi NNW 11.5 mph - N/A   Overcast
1:33 PM 32.0 °F 22.5 °F 30.2 °F 93% 29.85 in 10.0 mi NNW 12.7 mph - N/A   Overcast
1:36 PM 32.0 °F 22.5 °F 30.2 °F 93% 29.85 in 10.0 mi NNW 12.7 mph - N/A   Overcast
1:55 PM 32.2 °F 22.7 °F 30.9 °F 95% 29.86 in 10.0 mi NW 12.7 mph - N/A   Overcast
1:56 PM 32.0 °F 22.1 °F 30.2 °F 93% 29.86 in 10.0 mi NW 13.8 mph - N/A   Overcast
2:17 PM 32.0 °F 22.1 °F 30.2 °F 93% 29.86 in 10.0 mi NW 13.8 mph - N/A   Overcast
2:23 PM 32.0 °F 22.1 °F 30.2 °F 93% 29.86 in 10.0 mi NNW 13.8 mph - N/A   Overcast
2:26 PM 32.0 °F 22.5 °F 30.2 °F 93% 29.86 in 10.0 mi NNW 12.7 mph - N/A   Overcast
2:38 PM 32.0 °F 23.0 °F 30.2 °F 93% 29.86 in 10.0 mi NNW 11.5 mph - N/A   Overcast
2:41 PM 32.0 °F 22.5 °F 30.2 °F 93% 29.86 in 10.0 mi NNW 12.7 mph - N/A   Overcast
2:47 PM 32.0 °F 22.5 °F 30.2 °F 93% 29.86 in 10.0 mi NNW 12.7 mph - N/A   Overcast
2:48 PM 32.0 °F 22.5 °F 30.2 °F 93% 29.86 in 10.0 mi NNW 12.7 mph - N/A   Overcast
2:55 PM 32.7 °F 23.0 °F 29.7 °F 88% 29.86 in 10.0 mi NNW 13.8 mph - N/A   Overcast
4:06 PM 32.0 °F 22.5 °F 30.2 °F 93% 29.87 in 10.0 mi NNW 12.7 mph - N/A   Overcast
4:55 PM 32.5 °F 24.2 °F 28.9 °F 87% 29.87 in 10.0 mi North 10.4 mph - N/A   Overcast
5:01 PM 32.0 °F 23.0 °F 28.4 °F 87% 29.88 in 10.0 mi North 11.5 mph - N/A   Overcast
5:18 PM 32.0 °F 23.0 °F 28.4 °F 87% 29.89 in 10.0 mi NNW 11.5 mph - N/A   Overcast
5:19 PM 32.0 °F 23.6 °F 28.4 °F 87% 29.89 in 10.0 mi North 10.4 mph - N/A   Overcast
5:25 PM 32.0 °F 24.2 °F 28.4 °F 87% 29.89 in 10.0 mi North 9.2 mph - N/A   Overcast
5:34 PM 32.0 °F 24.2 °F 28.4 °F 87% 29.89 in 10.0 mi North 9.2 mph - N/A   Overcast
5:55 PM 32.5 °F 24.8 °F 28.8 °F 86% 29.89 in 10.0 mi North 9.2 mph - N/A   Overcast
6:22 PM 32.0 °F 24.2 °F 28.4 °F 87% 29.90 in 10.0 mi North 9.2 mph - N/A   Overcast
6:36 PM 32.0 °F 24.2 °F 28.4 °F 87% 29.90 in 10.0 mi North 9.2 mph - N/A   Overcast
6:47 PM 32.0 °F 24.2 °F 28.4 °F 87% 29.90 in 10.0 mi North 9.2 mph - N/A   Overcast
6:51 PM 32.0 °F 24.8 °F 28.4 °F 87% 29.90 in 10.0 mi North 8.1 mph - N/A   Overcast
6:55 PM 31.8 °F 24.6 °F 28.4 °F 87% 29.90 in 10.0 mi North 8.1 mph - N/A   Overcast
7:02 PM 32.0 °F 24.2 °F 28.4 °F 87% 29.90 in 10.0 mi North 9.2 mph - N/A   Overcast
7:16 PM 32.0 °F 25.6 °F 28.4 °F 87% 29.91 in 10.0 mi North 6.9 mph - N/A   Overcast
7:55 PM 31.3 °F 24.7 °F 27.7 °F 87% 29.91 in 10.0 mi NNE 6.9 mph - N/A   Overcast
7:59 PM 32.0 °F 25.6 °F 28.4 °F 87% 29.91 in 10.0 mi NNE 6.9 mph - N/A   Overcast
8:23 PM 30.2 °F 23.4 °F 26.6 °F 86% 29.91 in 10.0 mi NNE 6.9 mph - N/A   Overcast
8:55 PM 30.9 °F 25.2 °F 27.3 °F 86% 29.91 in 10.0 mi NE 5.8 mph - N/A   Overcast
9:07 PM 30.2 °F 26.7 °F 26.6 °F 86% 29.91 in 10.0 mi NNE 3.5 mph - N/A   Overcast
9:55 PM 30.9 °F 27.5 °F 27.5 °F 87% 29.92 in 10.0 mi North 3.5 mph - N/A   Overcast
10:55 PM 30.7 °F - 26.8 °F 85% 29.92 in 10.0 mi Calm Calm - N/A   Overcast
11:55 PM 30.7 °F - 26.4 °F 84% 29.93 in 10.0 mi Calm Calm - N/A   Overcast